Time,TemperatureF,DewpointF,PressureIn,WindDirection,WindDirectionDegrees,WindSpeedMPH,WindSpeedGustMPH,Humidity,HourlyPrecipIn,Conditions,Clouds,dailyrainin,SoftwareType,DateUTC
2013-03-15 00:00:00,10.1,8.0,29.90,NNE,22,2.0,6.0,79,0.00,,,0.00,Rainwise IP-100,2013-03-15 04:00:00,
2013-03-15 00:01:00,10.1,8.0,29.90,WSW,247,2.0,6.0,80,0.00,,,0.00,Rainwise IP-100,2013-03-15 04:01:00,
2013-03-15 00:03:00,9.9,8.0,29.90,North,360,4.0,6.0,80,0.00,,,0.00,Rainwise IP-100,2013-03-15 04:03:00,
2013-03-15 00:08:00,9.9,8.0,29.90,North,360,4.0,7.0,80,0.00,,,0.00,Rainwise IP-100,2013-03-15 04:08:00,
2013-03-15 00:09:00,9.9,8.0,29.90,SE,135,2.0,7.0,79,0.00,,,0.00,Rainwise IP-100,2013-03-15 04:09:00,
2013-03-15 00:14:00,10.1,8.0,29.90,NNW,337,2.0,9.0,79,0.00,,,0.00,Rainwise IP-100,2013-03-15 04:14:00,
2013-03-15 00:19:00,10.1,8.0,29.90,NW,315,4.0,7.0,79,0.00,,,0.00,Rainwise IP-100,2013-03-15 04:19:00,
2013-03-15 00:24:00,10.2,8.0,29.90,NNW,337,4.0,9.0,80,0.00,,,0.00,Rainwise IP-100,2013-03-15 04:24:00,
2013-03-15 00:29:00,10.1,8.0,29.90,South,180,2.0,7.0,81,0.00,,,0.00,Rainwise IP-100,2013-03-15 04:29:00,
2013-03-15 00:34:00,10.1,8.0,29.90,West,270,2.0,7.0,82,0.00,,,0.00,Rainwise IP-100,2013-03-15 04:34:00,
2013-03-15 00:39:00,10.1,8.0,29.90,NW,315,9.0,9.0,82,0.00,,,0.00,Rainwise IP-100,2013-03-15 04:39:00,
2013-03-15 00:45:00,9.9,8.0,29.89,North,360,3.0,9.0,83,0.00,,,0.00,Rainwise IP-100,2013-03-15 04:45:00,
2013-03-15 00:50:00,10.1,8.0,29.89,West,270,2.0,7.0,84,0.00,,,0.00,Rainwise IP-100,2013-03-15 04:50:00,
2013-03-15 00:55:00,10.1,8.0,29.90,NNE,22,2.0,7.0,84,0.00,,,0.00,Rainwise IP-100,2013-03-15 04:55:00,
2013-03-15 01:00:00,10.1,8.0,29.90,WSW,247,2.0,7.0,84,0.00,,,0.00,Rainwise IP-100,2013-03-15 05:00:00,
2013-03-15 01:05:00,10.2,8.0,29.89,West,270,1.0,7.0,84,0.00,,,0.00,Rainwise IP-100,2013-03-15 05:05:00,
2013-03-15 01:10:00,10.2,8.0,29.90,North,360,2.0,10.0,84,0.00,,,0.00,Rainwise IP-100,2013-03-15 05:10:00,
2013-03-15 01:15:00,10.3,8.0,29.90,NW,315,2.0,7.0,84,0.00,,,0.00,Rainwise IP-100,2013-03-15 05:15:00,
2013-03-15 01:20:00,10.3,8.0,29.90,NW,315,2.0,7.0,84,0.00,,,0.00,Rainwise IP-100,2013-03-15 05:20:00,
2013-03-15 01:25:00,10.3,8.0,29.90,NW,315,1.0,7.0,84,0.00,,,0.00,Rainwise IP-100,2013-03-15 05:25:00,
2013-03-15 01:30:00,10.4,8.0,29.90,ESE,112,2.0,6.0,85,0.00,,,0.00,Rainwise IP-100,2013-03-15 05:30:00,
2013-03-15 01:35:00,10.5,8.0,29.89,WNW,292,2.0,8.0,84,0.00,,,0.00,Rainwise IP-100,2013-03-15 05:35:00,
2013-03-15 01:40:00,10.6,8.0,29.89,NNW,337,0.0,9.0,85,0.00,,,0.00,Rainwise IP-100,2013-03-15 05:40:00,
2013-03-15 01:46:00,10.6,8.0,29.90,SW,225,2.0,6.0,85,0.00,,,0.00,Rainwise IP-100,2013-03-15 05:46:00,
2013-03-15 01:51:00,10.7,8.0,29.90,NNW,337,1.0,7.0,85,0.00,,,0.00,Rainwise IP-100,2013-03-15 05:51:00,
2013-03-15 01:56:00,10.8,8.0,29.90,NE,45,1.0,4.0,85,0.00,,,0.00,Rainwise IP-100,2013-03-15 05:56:00,
2013-03-15 02:01:00,10.8,8.0,29.90,NNW,337,1.0,5.0,85,0.00,,,0.00,Rainwise IP-100,2013-03-15 06:01:00,
2013-03-15 02:06:00,10.9,8.0,29.90,NW,315,1.0,6.0,84,0.00,,,0.00,Rainwise IP-100,2013-03-15 06:06:00,
2013-03-15 02:11:00,11.1,8.0,29.90,North,360,3.0,6.0,84,0.00,,,0.00,Rainwise IP-100,2013-03-15 06:11:00,
2013-03-15 02:17:00,10.9,8.0,29.90,NW,315,2.0,5.0,83,0.00,,,0.00,Rainwise IP-100,2013-03-15 06:17:00,
2013-03-15 02:22:00,10.9,8.0,29.90,NW,315,0.0,7.0,82,0.00,,,0.00,Rainwise IP-100,2013-03-15 06:22:00,
2013-03-15 02:27:00,10.9,8.0,29.90,West,270,2.0,9.0,82,0.00,,,0.00,Rainwise IP-100,2013-03-15 06:27:00,
2013-03-15 02:32:00,11.1,8.0,29.90,NNW,337,3.0,12.0,79,0.00,,,0.00,Rainwise IP-100,2013-03-15 06:32:00,
2013-03-15 02:37:00,11.1,4.0,29.90,NW,315,4.0,7.0,78,0.00,,,0.00,Rainwise IP-100,2013-03-15 06:37:00,
2013-03-15 02:42:00,11.1,4.0,29.90,West,270,6.0,7.0,78,0.00,,,0.00,Rainwise IP-100,2013-03-15 06:42:00,
2013-03-15 02:48:00,11.1,8.0,29.90,NW,315,1.0,6.0,79,0.00,,,0.00,Rainwise IP-100,2013-03-15 06:48:00,
2013-03-15 02:53:00,10.9,4.0,29.90,South,180,0.0,6.0,78,0.00,,,0.00,Rainwise IP-100,2013-03-15 06:53:00,
2013-03-15 02:58:00,10.8,8.0,29.90,WSW,247,2.0,5.0,80,0.00,,,0.00,Rainwise IP-100,2013-03-15 06:58:00,
2013-03-15 03:03:00,10.7,8.0,29.90,SSW,202,1.0,4.0,80,0.00,,,0.00,Rainwise IP-100,2013-03-15 07:03:00,
2013-03-15 03:08:00,10.6,8.0,29.90,South,180,1.0,4.0,79,0.00,,,0.00,Rainwise IP-100,2013-03-15 07:08:00,
2013-03-15 03:14:00,10.5,8.0,29.89,SW,225,3.0,6.0,80,0.00,,,0.00,Rainwise IP-100,2013-03-15 07:14:00,
2013-03-15 03:19:00,10.4,8.0,29.89,NNW,337,1.0,5.0,80,0.00,,,0.00,Rainwise IP-100,2013-03-15 07:19:00,
2013-03-15 03:24:00,9.9,8.0,29.90,NW,315,2.0,2.0,81,0.00,,,0.00,Rainwise IP-100,2013-03-15 07:24:00,
2013-03-15 03:29:00,9.8,8.0,29.90,West,270,2.0,3.0,81,0.00,,,0.00,Rainwise IP-100,2013-03-15 07:29:00,
2013-03-15 03:34:00,9.8,8.0,29.90,WSW,247,1.0,4.0,81,0.00,,,0.00,Rainwise IP-100,2013-03-15 07:34:00,
2013-03-15 03:39:00,9.6,8.0,29.89,WSW,247,1.0,5.0,81,0.00,,,0.00,Rainwise IP-100,2013-03-15 07:39:00,
2013-03-15 03:44:00,9.4,8.0,29.89,West,270,1.0,4.0,81,0.00,,,0.00,Rainwise IP-100,2013-03-15 07:44:00,
2013-03-15 03:50:00,9.2,8.0,29.89,NW,315,2.0,3.0,81,0.00,,,0.00,Rainwise IP-100,2013-03-15 07:50:00,
2013-03-15 03:55:00,9.1,8.0,29.89,WNW,292,1.0,4.0,82,0.00,,,0.00,Rainwise IP-100,2013-03-15 07:55:00,
2013-03-15 04:00:00,8.8,8.0,29.89,WNW,292,1.0,2.0,82,0.00,,,0.00,Rainwise IP-100,2013-03-15 08:00:00,
2013-03-15 04:05:00,8.7,8.0,29.89,West,270,0.0,2.0,82,0.00,,,0.00,Rainwise IP-100,2013-03-15 08:05:00,
2013-03-15 04:10:00,8.4,4.0,29.89,West,270,1.0,2.0,83,0.00,,,0.00,Rainwise IP-100,2013-03-15 08:10:00,
2013-03-15 04:15:00,8.2,4.0,29.89,SW,225,2.0,2.0,83,0.00,,,0.00,Rainwise IP-100,2013-03-15 08:15:00,
2013-03-15 04:20:00,8.2,4.0,29.89,South,180,2.0,6.0,83,0.00,,,0.00,Rainwise IP-100,2013-03-15 08:20:00,
2013-03-15 04:25:00,7.8,4.0,29.88,South,180,0.0,2.0,84,0.00,,,0.00,Rainwise IP-100,2013-03-15 08:25:00,
2013-03-15 04:30:00,6.9,4.0,29.88,NW,315,1.0,2.0,87,0.00,,,0.00,Rainwise IP-100,2013-03-15 08:30:00,
2013-03-15 04:35:00,6.6,4.0,29.87,NW,315,0.0,2.0,87,0.00,,,0.00,Rainwise IP-100,2013-03-15 08:35:00,
2013-03-15 04:40:00,6.3,4.0,29.87,NW,315,1.0,2.0,87,0.00,,,0.00,Rainwise IP-100,2013-03-15 08:40:00,
2013-03-15 04:45:00,5.9,4.0,29.87,NW,315,1.0,2.0,88,0.00,,,0.00,Rainwise IP-100,2013-03-15 08:45:00,
2013-03-15 04:51:00,5.4,4.0,29.88,NW,315,0.0,2.0,90,0.00,,,0.00,Rainwise IP-100,2013-03-15 08:51:00,
2013-03-15 04:56:00,5.3,4.0,29.88,NW,315,0.0,2.0,90,0.00,,,0.00,Rainwise IP-100,2013-03-15 08:56:00,
2013-03-15 05:01:00,5.2,4.0,29.88,SSW,202,0.0,2.0,90,0.00,,,0.00,Rainwise IP-100,2013-03-15 09:01:00,
2013-03-15 05:06:00,5.3,4.0,29.87,SSW,202,0.0,1.0,90,0.00,,,0.00,Rainwise IP-100,2013-03-15 09:06:00,
2013-03-15 05:11:00,4.9,4.0,29.87,SSW,202,0.0,0.0,91,0.00,,,0.00,Rainwise IP-100,2013-03-15 09:11:00,
2013-03-15 05:16:00,4.9,4.0,29.87,SSW,202,0.0,1.0,90,0.00,,,0.00,Rainwise IP-100,2013-03-15 09:16:00,
2013-03-15 05:21:00,4.9,4.0,29.87,SSW,202,0.0,0.0,91,0.00,,,0.00,Rainwise IP-100,2013-03-15 09:21:00,
2013-03-15 05:26:00,4.3,4.0,29.87,SSW,202,0.0,0.0,90,0.00,,,0.00,Rainwise IP-100,2013-03-15 09:26:00,
2013-03-15 05:32:00,3.4,4.0,29.87,SSW,202,0.0,0.0,91,0.00,,,0.00,Rainwise IP-100,2013-03-15 09:32:00,
2013-03-15 05:37:00,3.1,4.0,29.87,SSW,202,0.0,0.0,91,0.00,,,0.00,Rainwise IP-100,2013-03-15 09:37:00,
2013-03-15 05:43:00,2.7,4.0,29.87,SSW,202,0.0,0.0,91,0.00,,,0.00,Rainwise IP-100,2013-03-15 09:43:00,
2013-03-15 05:49:00,2.4,4.0,29.87,SSW,202,0.0,0.0,91,0.00,,,0.00,Rainwise IP-100,2013-03-15 09:49:00,
2013-03-15 05:54:00,2.3,4.0,29.86,SSW,202,0.0,0.0,91,0.00,,,0.00,Rainwise IP-100,2013-03-15 09:54:00,
2013-03-15 05:59:00,2.3,4.0,29.86,SSW,202,0.0,0.0,91,0.00,,,0.00,Rainwise IP-100,2013-03-15 09:59:00,
2013-03-15 06:04:00,2.3,4.0,29.86,SSW,202,0.0,0.0,91,0.00,,,0.00,Rainwise IP-100,2013-03-15 10:04:00,
2013-03-15 06:09:00,2.2,4.0,29.85,SSW,202,0.0,0.0,91,0.00,,,0.00,Rainwise IP-100,2013-03-15 10:09:00,
2013-03-15 06:14:00,2.1,4.0,29.86,SSW,202,0.0,0.0,91,0.00,,,0.00,Rainwise IP-100,2013-03-15 10:14:00,
2013-03-15 06:19:00,1.8,4.0,29.85,SSW,202,0.0,0.0,91,0.00,,,0.00,Rainwise IP-100,2013-03-15 10:19:00,
2013-03-15 06:24:00,1.4,4.0,29.85,SSW,202,0.0,0.0,91,0.00,,,0.00,Rainwise IP-100,2013-03-15 10:24:00,
2013-03-15 06:29:00,1.2,4.0,29.85,SSW,202,0.0,0.0,91,0.00,,,0.00,Rainwise IP-100,2013-03-15 10:29:00,
2013-03-15 06:34:00,1.2,4.0,29.85,SSW,202,0.0,0.0,91,0.00,,,0.00,Rainwise IP-100,2013-03-15 10:34:00,
2013-03-15 06:39:00,1.2,4.0,29.85,SSW,202,0.0,0.0,91,0.00,,,0.00,Rainwise IP-100,2013-03-15 10:39:00,
2013-03-15 06:44:00,0.9,4.0,29.85,SSW,202,0.0,0.0,91,0.00,,,0.00,Rainwise IP-100,2013-03-15 10:44:00,
2013-03-15 06:50:00,0.5,4.0,29.85,SSW,202,0.0,0.0,91,0.00,,,0.00,Rainwise IP-100,2013-03-15 10:50:00,
2013-03-15 06:55:00,0.4,0.0,29.84,SSW,202,0.0,0.0,91,0.00,,,0.00,Rainwise IP-100,2013-03-15 10:55:00,
2013-03-15 07:00:00,0.1,0.0,29.86,SSW,202,0.0,0.0,91,0.00,,,0.00,Rainwise IP-100,2013-03-15 11:00:00,
2013-03-15 07:05:00,0.1,0.0,29.85,SSW,202,0.0,0.0,91,0.00,,,0.00,Rainwise IP-100,2013-03-15 11:05:00,
2013-03-15 07:10:00,0.1,0.0,29.85,SSW,202,0.0,0.0,91,0.00,,,0.00,Rainwise IP-100,2013-03-15 11:10:00,
2013-03-15 07:15:00,0.2,0.0,29.84,SSW,202,0.0,0.0,91,0.00,,,0.00,Rainwise IP-100,2013-03-15 11:15:00,
2013-03-15 07:20:00,0.3,0.0,29.84,SSW,202,0.0,0.0,91,0.00,,,0.00,Rainwise IP-100,2013-03-15 11:20:00,
2013-03-15 07:25:00,0.3,0.0,29.84,SSW,202,0.0,0.0,91,0.00,,,0.00,Rainwise IP-100,2013-03-15 11:25:00,
2013-03-15 07:30:00,0.4,0.0,29.84,East,90,0.0,2.0,91,0.00,,,0.00,Rainwise IP-100,2013-03-15 11:30:00,
2013-03-15 07:35:00,0.7,4.0,29.83,East,90,0.0,1.0,91,0.00,,,0.00,Rainwise IP-100,2013-03-15 11:35:00,
2013-03-15 07:40:00,1.1,4.0,29.82,East,90,0.0,0.0,91,0.00,,,0.00,Rainwise IP-100,2013-03-15 11:40:00,
2013-03-15 07:45:00,1.3,4.0,29.82,East,90,0.0,0.0,91,0.00,,,0.00,Rainwise IP-100,2013-03-15 11:45:00,
2013-03-15 07:51:00,1.7,4.0,29.81,East,90,0.0,0.0,91,0.00,,,0.00,Rainwise IP-100,2013-03-15 11:51:00,
2013-03-15 07:56:00,1.8,4.0,29.81,East,90,0.0,0.0,91,0.00,,,0.00,Rainwise IP-100,2013-03-15 11:56:00,
2013-03-15 08:02:00,1.9,4.0,29.81,East,90,0.0,0.0,91,0.00,,,0.00,Rainwise IP-100,2013-03-15 12:02:00,
2013-03-15 08:07:00,2.4,4.0,29.81,East,90,0.0,0.0,91,0.00,,,0.00,Rainwise IP-100,2013-03-15 12:07:00,
2013-03-15 08:12:00,3.1,4.0,29.81,East,90,1.0,1.0,91,0.00,,,0.00,Rainwise IP-100,2013-03-15 12:12:00,
2013-03-15 08:18:00,3.9,4.0,29.81,East,90,1.0,2.0,91,0.00,,,0.00,Rainwise IP-100,2013-03-15 12:18:00,
2013-03-15 08:23:00,4.6,8.0,29.81,East,90,2.0,2.0,92,0.00,,,0.00,Rainwise IP-100,2013-03-15 12:23:00,
2013-03-15 08:28:00,4.9,8.0,29.81,East,90,0.0,2.0,92,0.00,,,0.00,Rainwise IP-100,2013-03-15 12:28:00,
2013-03-15 08:33:00,5.4,8.0,29.81,East,90,0.0,1.0,92,0.00,,,0.00,Rainwise IP-100,2013-03-15 12:33:00,
2013-03-15 08:38:00,5.5,8.0,29.80,East,90,1.0,1.0,92,0.00,,,0.00,Rainwise IP-100,2013-03-15 12:38:00,
2013-03-15 08:43:00,5.6,4.0,29.80,East,90,1.0,2.0,91,0.00,,,0.00,Rainwise IP-100,2013-03-15 12:43:00,
2013-03-15 08:48:00,5.9,4.0,29.80,East,90,0.0,2.0,89,0.00,,,0.00,Rainwise IP-100,2013-03-15 12:48:00,
2013-03-15 08:54:00,6.5,4.0,29.80,East,90,0.0,2.0,90,0.00,,,0.00,Rainwise IP-100,2013-03-15 12:54:00,
2013-03-15 08:59:00,7.4,4.0,29.80,East,90,0.0,0.0,90,0.00,,,0.00,Rainwise IP-100,2013-03-15 12:59:00,
2013-03-15 09:04:00,8.7,8.0,29.80,East,90,0.0,1.0,90,0.00,,,0.00,Rainwise IP-100,2013-03-15 13:04:00,
2013-03-15 09:09:00,9.6,8.0,29.80,East,90,0.0,0.0,85,0.00,,,0.00,Rainwise IP-100,2013-03-15 13:09:00,
2013-03-15 09:14:00,10.1,8.0,29.80,East,90,0.0,2.0,81,0.00,,,0.00,Rainwise IP-100,2013-03-15 13:14:00,
2013-03-15 09:19:00,10.6,8.0,29.80,East,90,0.0,1.0,80,0.00,,,0.00,Rainwise IP-100,2013-03-15 13:19:00,
2013-03-15 09:24:00,11.4,8.0,29.78,East,90,0.0,0.0,82,0.00,,,0.00,Rainwise IP-100,2013-03-15 13:24:00,
2013-03-15 09:29:00,12.5,11.0,29.78,East,90,0.0,0.0,82,0.00,,,0.00,Rainwise IP-100,2013-03-15 13:29:00,
2013-03-15 09:34:00,13.6,8.0,29.78,East,90,0.0,0.0,80,0.00,,,0.00,Rainwise IP-100,2013-03-15 13:34:00,
2013-03-15 09:39:00,15.3,14.0,29.78,East,90,0.0,0.0,84,0.00,,,0.00,Rainwise IP-100,2013-03-15 13:39:00,
2013-03-15 09:44:00,16.9,11.0,29.77,North,360,0.0,1.0,71,0.00,,,0.00,Rainwise IP-100,2013-03-15 13:44:00,
2013-03-15 09:49:00,18.3,8.0,29.77,North,360,0.0,1.0,60,0.00,,,0.00,Rainwise IP-100,2013-03-15 13:49:00,
2013-03-15 09:55:00,18.8,8.0,29.77,ESE,112,2.0,2.0,58,0.00,,,0.00,Rainwise IP-100,2013-03-15 13:55:00,
2013-03-15 10:00:00,18.9,8.0,29.77,SE,135,1.0,2.0,57,0.00,,,0.00,Rainwise IP-100,2013-03-15 14:00:00,
2013-03-15 10:05:00,19.8,8.0,29.77,SE,135,1.0,2.0,56,0.06,,,0.01,Rainwise IP-100,2013-03-15 14:05:00,
2013-03-15 10:10:00,19.9,8.0,29.77,SE,135,2.0,2.0,56,0.06,,,0.01,Rainwise IP-100,2013-03-15 14:10:00,
2013-03-15 10:15:00,19.9,8.0,29.77,SE,135,2.0,2.0,54,0.00,,,0.01,Rainwise IP-100,2013-03-15 14:15:00,
2013-03-15 10:20:00,19.9,8.0,29.76,SE,135,2.0,2.0,53,0.00,,,0.01,Rainwise IP-100,2013-03-15 14:20:00,
2013-03-15 10:25:00,20.9,8.0,29.76,SE,135,0.0,2.0,52,0.00,,,0.02,Rainwise IP-100,2013-03-15 14:25:00,
2013-03-15 10:30:00,22.1,8.0,29.76,SE,135,1.0,2.0,53,0.06,,,0.02,Rainwise IP-100,2013-03-15 14:30:00,
2013-03-15 10:35:00,21.9,8.0,29.75,SE,135,2.0,3.0,50,0.06,,,0.02,Rainwise IP-100,2013-03-15 14:35:00,
2013-03-15 10:40:00,22.3,8.0,29.75,SE,135,3.0,4.0,49,0.00,,,0.02,Rainwise IP-100,2013-03-15 14:40:00,
2013-03-15 10:45:00,22.4,8.0,29.74,SE,135,0.0,3.0,49,0.00,,,0.02,Rainwise IP-100,2013-03-15 14:45:00,
2013-03-15 10:50:00,22.8,8.0,29.74,South,180,2.0,6.0,49,0.00,,,0.02,Rainwise IP-100,2013-03-15 14:50:00,
2013-03-15 10:56:00,23.4,4.0,29.73,WSW,247,2.0,9.0,43,0.00,,,0.02,Rainwise IP-100,2013-03-15 14:56:00,
2013-03-15 11:01:00,23.9,8.0,29.73,South,180,2.0,12.0,48,0.00,,,0.02,Rainwise IP-100,2013-03-15 15:01:00,
2013-03-15 11:07:00,24.3,8.0,29.73,SE,135,2.0,8.0,46,0.00,,,0.02,Rainwise IP-100,2013-03-15 15:07:00,
2013-03-15 11:12:00,24.9,8.0,29.73,WSW,247,2.0,9.0,45,0.00,,,0.02,Rainwise IP-100,2013-03-15 15:12:00,
2013-03-15 11:17:00,25.0,8.0,29.73,South,180,2.0,9.0,45,0.00,,,0.02,Rainwise IP-100,2013-03-15 15:17:00,
2013-03-15 11:22:00,25.3,11.0,29.73,SE,135,5.0,12.0,48,0.00,,,0.02,Rainwise IP-100,2013-03-15 15:22:00,
2013-03-15 11:27:00,25.2,11.0,29.72,South,180,6.0,12.0,50,0.00,,,0.02,Rainwise IP-100,2013-03-15 15:27:00,
2013-03-15 11:32:00,25.0,11.0,29.72,South,180,2.0,9.0,53,0.00,,,0.02,Rainwise IP-100,2013-03-15 15:32:00,
2013-03-15 11:37:00,25.5,14.0,29.72,South,180,2.0,7.0,55,0.00,,,0.02,Rainwise IP-100,2013-03-15 15:37:00,
2013-03-15 11:42:00,25.3,14.0,29.71,South,180,5.0,8.0,56,0.00,,,0.02,Rainwise IP-100,2013-03-15 15:42:00,
2013-03-15 11:47:00,25.0,16.0,29.71,South,180,5.0,12.0,61,0.00,,,0.02,Rainwise IP-100,2013-03-15 15:47:00,
2013-03-15 11:52:00,25.0,16.0,29.71,SSW,202,4.0,9.0,62,0.00,,,0.02,Rainwise IP-100,2013-03-15 15:52:00,
2013-03-15 11:58:00,24.9,16.0,29.71,SW,225,4.0,8.0,64,0.00,,,0.02,Rainwise IP-100,2013-03-15 15:58:00,
2013-03-15 12:03:00,25.3,16.0,29.70,South,180,2.0,7.0,66,0.00,,,0.02,Rainwise IP-100,2013-03-15 16:03:00,
2013-03-15 12:08:00,25.2,18.0,29.70,South,180,3.0,8.0,69,0.00,,,0.02,Rainwise IP-100,2013-03-15 16:08:00,
2013-03-15 12:13:00,25.2,18.0,29.69,South,180,4.0,7.0,70,0.00,,,0.02,Rainwise IP-100,2013-03-15 16:13:00,
2013-03-15 12:18:00,25.6,18.0,29.69,South,180,4.0,5.0,69,0.00,,,0.02,Rainwise IP-100,2013-03-15 16:18:00,
2013-03-15 12:23:00,25.7,18.0,29.69,South,180,4.0,9.0,72,0.00,,,0.02,Rainwise IP-100,2013-03-15 16:23:00,
2013-03-15 12:28:00,25.5,18.0,29.69,SW,225,1.0,8.0,74,0.00,,,0.02,Rainwise IP-100,2013-03-15 16:28:00,
2013-03-15 12:33:00,25.7,18.0,29.69,South,180,3.0,6.0,74,0.00,,,0.02,Rainwise IP-100,2013-03-15 16:33:00,
2013-03-15 12:38:00,25.9,18.0,29.68,South,180,4.0,7.0,72,0.00,,,0.02,Rainwise IP-100,2013-03-15 16:38:00,
2013-03-15 12:43:00,26.1,18.0,29.68,SW,225,2.0,10.0,73,0.00,,,0.02,Rainwise IP-100,2013-03-15 16:43:00,
2013-03-15 12:48:00,26.1,18.0,29.68,SSW,202,1.0,9.0,74,0.00,,,0.02,Rainwise IP-100,2013-03-15 16:48:00,
2013-03-15 12:53:00,26.3,18.0,29.68,South,180,9.0,9.0,74,0.00,,,0.02,Rainwise IP-100,2013-03-15 16:53:00,
2013-03-15 12:59:00,26.2,18.0,29.67,South,180,4.0,11.0,74,0.00,,,0.02,Rainwise IP-100,2013-03-15 16:59:00,
2013-03-15 13:04:00,26.5,21.0,29.67,South,180,11.0,12.0,72,0.00,,,0.02,Rainwise IP-100,2013-03-15 17:04:00,
2013-03-15 13:09:00,26.9,21.0,29.66,SSE,157,9.0,12.0,71,0.00,,,0.02,Rainwise IP-100,2013-03-15 17:09:00,
2013-03-15 13:14:00,26.9,21.0,29.66,SW,225,3.0,12.0,70,0.00,,,0.02,Rainwise IP-100,2013-03-15 17:14:00,
2013-03-15 13:19:00,27.1,18.0,29.65,South,180,8.0,12.0,69,0.00,,,0.02,Rainwise IP-100,2013-03-15 17:19:00,
2013-03-15 13:24:00,27.4,21.0,29.65,SSE,157,10.0,12.0,70,0.00,,,0.02,Rainwise IP-100,2013-03-15 17:24:00,
2013-03-15 13:29:00,27.5,18.0,29.64,SW,225,6.0,12.0,69,0.00,,,0.02,Rainwise IP-100,2013-03-15 17:29:00,
2013-03-15 13:34:00,27.8,21.0,29.64,South,180,5.0,14.0,70,0.00,,,0.02,Rainwise IP-100,2013-03-15 17:34:00,
2013-03-15 13:39:00,27.6,21.0,29.64,SSW,202,4.0,14.0,71,0.00,,,0.02,Rainwise IP-100,2013-03-15 17:39:00,
2013-03-15 13:44:00,27.7,21.0,29.64,SW,225,8.0,14.0,70,0.00,,,0.02,Rainwise IP-100,2013-03-15 17:44:00,
2013-03-15 13:49:00,27.9,21.0,29.63,ESE,112,2.0,9.0,71,0.00,,,0.02,Rainwise IP-100,2013-03-15 17:49:00,
2013-03-15 13:54:00,28.5,23.0,29.63,South,180,7.0,8.0,72,0.00,,,0.02,Rainwise IP-100,2013-03-15 17:54:00,
2013-03-15 14:00:00,28.6,23.0,29.63,NE,45,2.0,11.0,72,0.00,,,0.02,Rainwise IP-100,2013-03-15 18:00:00,
2013-03-15 14:05:00,28.3,21.0,29.63,South,180,4.0,11.0,73,0.00,,,0.02,Rainwise IP-100,2013-03-15 18:05:00,
2013-03-15 14:10:00,28.6,23.0,29.62,South,180,6.0,8.0,73,0.00,,,0.02,Rainwise IP-100,2013-03-15 18:10:00,
2013-03-15 14:15:00,28.7,23.0,29.62,SSE,157,4.0,7.0,73,0.00,,,0.02,Rainwise IP-100,2013-03-15 18:15:00,
2013-03-15 14:20:00,28.4,21.0,29.62,SSW,202,6.0,9.0,74,0.00,,,0.02,Rainwise IP-100,2013-03-15 18:20:00,
2013-03-15 14:25:00,28.9,23.0,29.62,South,180,4.0,9.0,73,0.00,,,0.02,Rainwise IP-100,2013-03-15 18:25:00,
2013-03-15 14:30:00,28.7,23.0,29.62,SSW,202,2.0,7.0,74,0.00,,,0.02,Rainwise IP-100,2013-03-15 18:30:00,
2013-03-15 14:35:00,28.5,23.0,29.62,South,180,4.0,9.0,75,0.00,,,0.02,Rainwise IP-100,2013-03-15 18:35:00,
2013-03-15 14:40:00,27.9,23.0,29.62,WSW,247,6.0,9.0,78,0.00,,,0.02,Rainwise IP-100,2013-03-15 18:40:00,
2013-03-15 14:45:00,27.5,23.0,29.62,SW,225,9.0,11.0,80,0.00,,,0.02,Rainwise IP-100,2013-03-15 18:45:00,
2013-03-15 14:50:00,27.3,23.0,29.62,South,180,8.0,14.0,81,0.00,,,0.02,Rainwise IP-100,2013-03-15 18:50:00,
2013-03-15 14:55:00,27.1,23.0,29.61,WSW,247,2.0,9.0,82,0.00,,,0.02,Rainwise IP-100,2013-03-15 18:55:00,
2013-03-15 15:01:00,27.2,24.0,29.61,South,180,4.0,9.0,84,0.00,,,0.02,Rainwise IP-100,2013-03-15 19:01:00,
2013-03-15 15:06:00,27.2,23.0,29.61,South,180,4.0,7.0,83,0.00,,,0.02,Rainwise IP-100,2013-03-15 19:06:00,
2013-03-15 15:11:00,27.3,24.0,29.61,SW,225,8.0,8.0,86,0.00,,,0.02,Rainwise IP-100,2013-03-15 19:11:00,
2013-03-15 15:16:00,27.2,24.0,29.60,SE,135,6.0,11.0,88,0.00,,,0.02,Rainwise IP-100,2013-03-15 19:16:00,
2013-03-15 15:21:00,27.1,24.0,29.60,SSW,202,2.0,9.0,89,0.00,,,0.02,Rainwise IP-100,2013-03-15 19:21:00,
2013-03-15 15:27:00,27.1,24.0,29.60,WSW,247,2.0,6.0,89,0.00,,,0.02,Rainwise IP-100,2013-03-15 19:27:00,
2013-03-15 15:32:00,27.5,24.0,29.60,SSW,202,6.0,6.0,87,0.00,,,0.02,Rainwise IP-100,2013-03-15 19:32:00,
2013-03-15 15:37:00,27.9,24.0,29.60,South,180,1.0,6.0,89,0.00,,,0.02,Rainwise IP-100,2013-03-15 19:37:00,
2013-03-15 15:42:00,28.0,24.0,29.61,SW,225,3.0,7.0,88,0.00,,,0.02,Rainwise IP-100,2013-03-15 19:42:00,
2013-03-15 15:47:00,28.1,24.0,29.60,South,180,2.0,5.0,88,0.00,,,0.02,Rainwise IP-100,2013-03-15 19:47:00,
2013-03-15 15:52:00,28.0,24.0,29.60,SSE,157,2.0,5.0,88,0.00,,,0.02,Rainwise IP-100,2013-03-15 19:52:00,
2013-03-15 15:57:00,28.2,24.0,29.60,South,180,2.0,7.0,87,0.00,,,0.02,Rainwise IP-100,2013-03-15 19:57:00,
2013-03-15 16:03:00,28.1,24.0,29.60,West,270,9.0,11.0,86,0.00,,,0.02,Rainwise IP-100,2013-03-15 20:03:00,
2013-03-15 16:08:00,28.2,24.0,29.60,WSW,247,1.0,11.0,88,0.00,,,0.02,Rainwise IP-100,2013-03-15 20:08:00,
2013-03-15 16:13:00,28.2,26.0,29.60,SW,225,4.0,9.0,90,0.00,,,0.02,Rainwise IP-100,2013-03-15 20:13:00,
2013-03-15 16:18:00,28.2,24.0,29.60,SW,225,4.0,10.0,88,0.00,,,0.02,Rainwise IP-100,2013-03-15 20:18:00,
2013-03-15 16:23:00,27.8,26.0,29.60,SSW,202,2.0,9.0,92,0.00,,,0.02,Rainwise IP-100,2013-03-15 20:23:00,
2013-03-15 16:28:00,27.6,26.0,29.60,West,270,1.0,5.0,94,0.00,,,0.02,Rainwise IP-100,2013-03-15 20:28:00,
2013-03-15 16:33:00,27.7,26.0,29.60,North,360,1.0,6.0,92,0.00,,,0.02,Rainwise IP-100,2013-03-15 20:33:00,
2013-03-15 16:38:00,28.0,26.0,29.60,NW,315,1.0,3.0,91,0.00,,,0.02,Rainwise IP-100,2013-03-15 20:38:00,
2013-03-15 16:43:00,28.2,26.0,29.60,South,180,0.0,6.0,91,0.00,,,0.02,Rainwise IP-100,2013-03-15 20:43:00,
2013-03-15 16:48:00,28.4,26.0,29.60,NW,315,2.0,2.0,90,0.00,,,0.02,Rainwise IP-100,2013-03-15 20:48:00,
2013-03-15 16:53:00,28.1,26.0,29.60,SW,225,1.0,8.0,90,0.00,,,0.02,Rainwise IP-100,2013-03-15 20:53:00,
2013-03-15 16:58:00,28.1,24.0,29.60,South,180,1.0,7.0,89,0.00,,,0.02,Rainwise IP-100,2013-03-15 20:58:00,
2013-03-15 17:04:00,28.5,26.0,29.60,North,360,1.0,2.0,88,0.00,,,0.02,Rainwise IP-100,2013-03-15 21:04:00,
2013-03-15 17:09:00,28.4,24.0,29.60,South,180,2.0,7.0,86,0.00,,,0.02,Rainwise IP-100,2013-03-15 21:09:00,
2013-03-15 17:14:00,28.5,24.0,29.60,SW,225,2.0,8.0,84,0.00,,,0.02,Rainwise IP-100,2013-03-15 21:14:00,
2013-03-15 17:20:00,28.5,24.0,29.60,SW,225,4.0,9.0,83,0.06,,,0.03,Rainwise IP-100,2013-03-15 21:20:00,
2013-03-15 17:25:00,28.4,24.0,29.59,NW,315,6.0,7.0,84,0.06,,,0.03,Rainwise IP-100,2013-03-15 21:25:00,
2013-03-15 17:30:00,28.3,24.0,29.60,NW,315,1.0,15.0,85,0.00,,,0.03,Rainwise IP-100,2013-03-15 21:30:00,
2013-03-15 17:35:00,28.3,24.0,29.60,SW,225,3.0,11.0,85,0.00,,,0.03,Rainwise IP-100,2013-03-15 21:35:00,
2013-03-15 17:40:00,28.3,24.0,29.60,SSW,202,3.0,6.0,86,0.00,,,0.03,Rainwise IP-100,2013-03-15 21:40:00,
2013-03-15 17:45:00,28.1,24.0,29.60,NE,45,2.0,12.0,85,0.00,,,0.03,Rainwise IP-100,2013-03-15 21:45:00,
2013-03-15 17:50:00,28.0,24.0,29.60,South,180,1.0,11.0,85,0.00,,,0.03,Rainwise IP-100,2013-03-15 21:50:00,
2013-03-15 17:55:00,28.0,24.0,29.60,SE,135,2.0,6.0,85,0.00,,,0.03,Rainwise IP-100,2013-03-15 21:55:00,
2013-03-15 18:01:00,27.9,24.0,29.60,South,180,1.0,5.0,85,0.00,,,0.03,Rainwise IP-100,2013-03-15 22:01:00,
2013-03-15 18:06:00,27.9,24.0,29.60,West,270,2.0,6.0,86,0.00,,,0.03,Rainwise IP-100,2013-03-15 22:06:00,
2013-03-15 18:11:00,27.9,24.0,29.59,WSW,247,1.0,6.0,86,0.00,,,0.03,Rainwise IP-100,2013-03-15 22:11:00,
2013-03-15 18:17:00,27.9,24.0,29.58,NW,315,0.0,2.0,87,0.00,,,0.03,Rainwise IP-100,2013-03-15 22:17:00,
2013-03-15 18:23:00,27.7,24.0,29.58,West,270,2.0,2.0,88,0.00,,,0.03,Rainwise IP-100,2013-03-15 22:23:00,
2013-03-15 18:28:00,27.5,24.0,29.58,NW,315,2.0,3.0,89,0.00,,,0.03,Rainwise IP-100,2013-03-15 22:28:00,
2013-03-15 18:33:00,27.2,26.0,29.59,West,270,3.0,4.0,94,0.00,,,0.03,Rainwise IP-100,2013-03-15 22:33:00,
2013-03-15 18:38:00,26.9,26.0,29.60,NW,315,2.0,5.0,94,0.00,,,0.03,Rainwise IP-100,2013-03-15 22:38:00,
2013-03-15 18:43:00,26.8,26.0,29.61,South,180,1.0,4.0,94,0.00,,,0.03,Rainwise IP-100,2013-03-15 22:43:00,
2013-03-15 18:48:00,26.1,24.0,29.62,West,270,14.0,14.0,94,0.00,,,0.03,Rainwise IP-100,2013-03-15 22:48:00,
2013-03-15 18:53:00,25.1,24.0,29.64,NW,315,0.0,16.0,94,0.00,,,0.03,Rainwise IP-100,2013-03-15 22:53:00,
2013-03-15 18:58:00,24.7,24.0,29.64,NW,315,0.0,10.0,93,0.00,,,0.03,Rainwise IP-100,2013-03-15 22:58:00,
2013-03-15 19:04:00,24.5,24.0,29.65,West,270,3.0,6.0,93,0.00,,,0.03,Rainwise IP-100,2013-03-15 23:04:00,
2013-03-15 19:09:00,24.4,23.0,29.66,North,360,1.0,7.0,93,0.00,,,0.03,Rainwise IP-100,2013-03-15 23:09:00,
2013-03-15 19:14:00,24.3,23.0,29.66,NW,315,1.0,6.0,93,0.00,,,0.03,Rainwise IP-100,2013-03-15 23:14:00,
2013-03-15 19:19:00,24.2,23.0,29.66,NNE,22,3.0,6.0,92,0.00,,,0.03,Rainwise IP-100,2013-03-15 23:19:00,
2013-03-15 19:24:00,24.1,23.0,29.67,North,360,0.0,4.0,92,0.00,,,0.03,Rainwise IP-100,2013-03-15 23:24:00,
2013-03-15 19:29:00,23.9,23.0,29.67,SE,135,2.0,5.0,89,0.00,,,0.03,Rainwise IP-100,2013-03-15 23:29:00,
2013-03-15 19:34:00,23.9,21.0,29.67,NW,315,5.0,7.0,87,0.00,,,0.03,Rainwise IP-100,2013-03-15 23:34:00,
2013-03-15 19:39:00,23.8,21.0,29.67,North,360,1.0,7.0,88,0.00,,,0.03,Rainwise IP-100,2013-03-15 23:39:00,
2013-03-15 19:44:00,23.7,21.0,29.68,North,360,4.0,9.0,84,0.00,,,0.03,Rainwise IP-100,2013-03-15 23:44:00,
2013-03-15 19:49:00,23.5,21.0,29.68,WSW,247,5.0,9.0,85,0.00,,,0.03,Rainwise IP-100,2013-03-15 23:49:00,
2013-03-15 19:54:00,23.4,18.0,29.67,North,360,2.0,5.0,86,0.00,,,0.03,Rainwise IP-100,2013-03-15 23:54:00,
2013-03-15 19:59:00,23.3,18.0,29.67,NW,315,2.0,4.0,86,0.00,,,0.03,Rainwise IP-100,2013-03-15 23:59:00,
2013-03-15 20:05:00,23.2,18.0,29.67,North,360,2.0,3.0,86,0.00,,,0.03,Rainwise IP-100,2013-03-16 00:05:00,
2013-03-15 20:10:00,23.0,18.0,29.67,NW,315,1.0,6.0,86,0.00,,,0.03,Rainwise IP-100,2013-03-16 00:10:00,
2013-03-15 20:15:00,22.9,18.0,29.68,SW,225,0.0,4.0,87,0.00,,,0.03,Rainwise IP-100,2013-03-16 00:15:00,
2013-03-15 20:20:00,22.9,21.0,29.68,SW,225,1.0,3.0,88,0.00,,,0.03,Rainwise IP-100,2013-03-16 00:20:00,
2013-03-15 20:25:00,22.9,21.0,29.68,NW,315,0.0,2.0,90,0.00,,,0.03,Rainwise IP-100,2013-03-16 00:25:00,
2013-03-15 20:30:00,22.8,21.0,29.68,ENE,67,0.0,2.0,91,0.00,,,0.03,Rainwise IP-100,2013-03-16 00:30:00,
2013-03-15 20:35:00,22.8,21.0,29.69,South,180,1.0,6.0,92,0.00,,,0.03,Rainwise IP-100,2013-03-16 00:35:00,
2013-03-15 20:40:00,22.8,21.0,29.69,West,270,2.0,6.0,91,0.00,,,0.03,Rainwise IP-100,2013-03-16 00:40:00,
2013-03-15 20:45:00,22.8,21.0,29.70,West,270,0.0,7.0,91,0.00,,,0.03,Rainwise IP-100,2013-03-16 00:45:00,
2013-03-15 20:50:00,22.7,21.0,29.70,WSW,247,4.0,6.0,91,0.00,,,0.03,Rainwise IP-100,2013-03-16 00:50:00,
2013-03-15 20:55:00,22.6,21.0,29.70,NW,315,2.0,9.0,93,0.00,,,0.03,Rainwise IP-100,2013-03-16 00:55:00,
2013-03-15 21:00:00,22.5,21.0,29.70,NW,315,1.0,4.0,92,0.00,,,0.03,Rainwise IP-100,2013-03-16 01:00:00,
2013-03-15 21:06:00,22.5,21.0,29.70,NW,315,1.0,3.0,90,0.00,,,0.03,Rainwise IP-100,2013-03-16 01:06:00,
2013-03-15 21:11:00,22.5,18.0,29.70,South,180,1.0,14.0,86,0.00,,,0.03,Rainwise IP-100,2013-03-16 01:11:00,
2013-03-15 21:16:00,22.5,21.0,29.71,NW,315,2.0,4.0,88,0.00,,,0.03,Rainwise IP-100,2013-03-16 01:16:00,
2013-03-15 21:21:00,22.5,18.0,29.70,NNW,337,2.0,7.0,87,0.00,,,0.03,Rainwise IP-100,2013-03-16 01:21:00,
2013-03-15 21:26:00,22.4,21.0,29.70,WSW,247,2.0,6.0,88,0.00,,,0.03,Rainwise IP-100,2013-03-16 01:26:00,
2013-03-15 21:31:00,22.4,21.0,29.71,East,90,2.0,6.0,89,0.00,,,0.03,Rainwise IP-100,2013-03-16 01:31:00,
2013-03-15 21:37:00,22.3,21.0,29.71,SW,225,1.0,9.0,90,0.00,,,0.03,Rainwise IP-100,2013-03-16 01:37:00,
2013-03-15 21:42:00,22.1,21.0,29.71,NW,315,0.0,6.0,90,0.00,,,0.03,Rainwise IP-100,2013-03-16 01:42:00,
2013-03-15 21:47:00,22.0,21.0,29.71,SW,225,1.0,6.0,89,0.00,,,0.03,Rainwise IP-100,2013-03-16 01:47:00,
2013-03-15 21:52:00,21.9,18.0,29.72,West,270,1.0,7.0,87,0.00,,,0.03,Rainwise IP-100,2013-03-16 01:52:00,
2013-03-15 21:57:00,21.7,21.0,29.72,North,360,2.0,7.0,88,0.00,,,0.03,Rainwise IP-100,2013-03-16 01:57:00,
2013-03-15 22:02:00,21.6,18.0,29.72,SW,225,2.0,3.0,85,0.00,,,0.03,Rainwise IP-100,2013-03-16 02:02:00,
2013-03-15 22:08:00,21.4,16.0,29.73,NW,315,1.0,6.0,84,0.00,,,0.03,Rainwise IP-100,2013-03-16 02:08:00,
2013-03-15 22:13:00,21.1,16.0,29.73,NW,315,2.0,6.0,84,0.00,,,0.03,Rainwise IP-100,2013-03-16 02:13:00,
2013-03-15 22:18:00,20.9,16.0,29.74,SW,225,0.0,5.0,83,0.00,,,0.03,Rainwise IP-100,2013-03-16 02:18:00,
2013-03-15 22:23:00,20.6,16.0,29.74,West,270,3.0,4.0,82,0.00,,,0.03,Rainwise IP-100,2013-03-16 02:23:00,
2013-03-15 22:29:00,20.3,16.0,29.74,North,360,1.0,4.0,82,0.00,,,0.03,Rainwise IP-100,2013-03-16 02:29:00,
2013-03-15 22:34:00,20.1,16.0,29.74,WNW,292,1.0,3.0,83,0.00,,,0.03,Rainwise IP-100,2013-03-16 02:34:00,
2013-03-15 22:39:00,19.9,16.0,29.74,SW,225,2.0,8.0,83,0.00,,,0.03,Rainwise IP-100,2013-03-16 02:39:00,
2013-03-15 22:44:00,19.9,16.0,29.75,West,270,2.0,4.0,82,0.00,,,0.03,Rainwise IP-100,2013-03-16 02:44:00,
2013-03-15 22:49:00,19.6,16.0,29.74,NW,315,1.0,6.0,83,0.00,,,0.03,Rainwise IP-100,2013-03-16 02:49:00,
2013-03-15 22:54:00,19.4,16.0,29.75,SW,225,0.0,4.0,83,0.00,,,0.03,Rainwise IP-100,2013-03-16 02:54:00,
2013-03-15 22:59:00,19.3,16.0,29.76,SW,225,0.0,4.0,84,0.00,,,0.03,Rainwise IP-100,2013-03-16 02:59:00,
2013-03-15 23:04:00,19.2,16.0,29.76,ENE,67,1.0,6.0,84,0.00,,,0.03,Rainwise IP-100,2013-03-16 03:04:00,
2013-03-15 23:10:00,19.2,16.0,29.76,West,270,2.0,7.0,83,0.00,,,0.03,Rainwise IP-100,2013-03-16 03:10:00,
2013-03-15 23:15:00,19.2,16.0,29.76,WSW,247,2.0,7.0,84,0.00,,,0.03,Rainwise IP-100,2013-03-16 03:15:00,
2013-03-15 23:20:00,19.2,16.0,29.76,NNW,337,1.0,5.0,85,0.00,,,0.03,Rainwise IP-100,2013-03-16 03:20:00,
2013-03-15 23:25:00,18.9,16.0,29.76,North,360,2.0,2.0,86,0.00,,,0.03,Rainwise IP-100,2013-03-16 03:25:00,
2013-03-15 23:30:00,18.7,16.0,29.76,North,360,2.0,8.0,85,0.00,,,0.03,Rainwise IP-100,2013-03-16 03:30:00,
2013-03-15 23:35:00,18.6,16.0,29.76,West,270,2.0,3.0,86,0.00,,,0.03,Rainwise IP-100,2013-03-16 03:35:00,
2013-03-15 23:40:00,18.6,16.0,29.76,NW,315,4.0,6.0,86,0.00,,,0.03,Rainwise IP-100,2013-03-16 03:40:00,
2013-03-15 23:45:00,18.4,16.0,29.76,West,270,1.0,4.0,86,0.00,,,0.03,Rainwise IP-100,2013-03-16 03:45:00,
2013-03-15 23:50:00,18.1,16.0,29.76,North,360,1.0,2.0,86,0.00,,,0.03,Rainwise IP-100,2013-03-16 03:50:00,
2013-03-15 23:55:00,18.0,16.0,29.76,NW,315,2.0,3.0,86,0.00,,,0.03,Rainwise IP-100,2013-03-16 03:55:00,